TimeEST,TemperatureF,Dew PointF,Humidity,Sea Level PressureIn,VisibilityMPH,Wind Direction,Wind SpeedMPH,Gust SpeedMPH,PrecipitationIn,Events,Conditions,WindDirDegrees,DateUTC
12:15 AM,44.6,28.4,53,30.12,10.0,West,8.1,-,N/A,,Mostly Cloudy,260,2013-11-11 05:15:00
12:35 AM,44.6,26.6,49,30.13,10.0,West,8.1,-,N/A,,Scattered Clouds,280,2013-11-11 05:35:00
12:55 AM,42.8,26.6,53,30.14,10.0,West,5.8,-,N/A,,Partly Cloudy,270,2013-11-11 05:55:00
1:15 AM,41.0,26.6,57,30.14,10.0,West,4.6,-,N/A,,Clear,260,2013-11-11 06:15:00
1:35 AM,41.0,26.6,57,30.16,10.0,WSW,6.9,-,N/A,,Clear,250,2013-11-11 06:35:00
1:55 AM,41.0,26.6,57,30.17,10.0,WSW,5.8,-,N/A,,Partly Cloudy,250,2013-11-11 06:55:00
2:15 AM,41.0,26.6,57,30.18,10.0,WSW,4.6,-,N/A,,Mostly Cloudy,250,2013-11-11 07:15:00
2:35 AM,41.0,26.6,57,30.18,10.0,WSW,5.8,-,N/A,,Overcast,240,2013-11-11 07:35:00
2:55 AM,41.0,26.6,57,30.18,10.0,WSW,4.6,-,N/A,,Scattered Clouds,250,2013-11-11 07:55:00
3:15 AM,39.2,26.6,61,30.19,10.0,West,5.8,-,N/A,,Partly Cloudy,260,2013-11-11 08:15:00
3:35 AM,39.2,26.6,61,30.18,10.0,West,8.1,-,N/A,,Clear,280,2013-11-11 08:35:00
3:55 AM,41.0,26.6,57,30.19,10.0,West,5.8,-,N/A,,Clear,280,2013-11-11 08:55:00
4:15 AM,39.2,26.6,61,30.19,10.0,West,6.9,-,N/A,,Clear,280,2013-11-11 09:15:00
4:35 AM,39.2,26.6,61,30.20,10.0,West,4.6,-,N/A,,Clear,270,2013-11-11 09:35:00
4:55 AM,37.4,26.6,65,30.20,10.0,South,3.5,-,N/A,,Clear,180,2013-11-11 09:55:00
5:15 AM,35.6,26.6,70,30.20,10.0,Calm,Calm,-,N/A,,Clear,0,2013-11-11 10:15:00
5:35 AM,37.4,26.6,65,30.21,10.0,West,4.6,-,N/A,,Clear,280,2013-11-11 10:35:00
5:55 AM,37.4,26.6,65,30.21,10.0,Calm,Calm,-,N/A,,Clear,0,2013-11-11 10:55:00
6:15 AM,35.6,26.6,70,30.21,10.0,Calm,Calm,-,N/A,,Clear,0,2013-11-11 11:15:00
6:35 AM,32.0,26.6,80,30.22,10.0,Calm,Calm,-,N/A,,Clear,0,2013-11-11 11:35:00
6:55 AM,32.0,26.6,80,30.22,10.0,Calm,Calm,-,N/A,,Clear,0,2013-11-11 11:55:00
7:15 AM,32.0,26.6,80,30.24,10.0,Calm,Calm,-,N/A,,Clear,0,2013-11-11 12:15:00
7:35 AM,32.0,26.6,80,30.24,10.0,SSW,3.5,-,N/A,,Clear,210,2013-11-11 12:35:00
7:55 AM,37.4,26.6,65,30.23,10.0,Calm,Calm,-,N/A,,Clear,0,2013-11-11 12:55:00
8:15 AM,39.2,28.4,65,30.24,10.0,Calm,Calm,-,N/A,,Clear,0,2013-11-11 13:15:00
8:35 AM,41.0,28.4,61,30.23,10.0,Calm,Calm,-,N/A,,Clear,0,2013-11-11 13:35:00
8:55 AM,42.8,28.4,57,30.24,10.0,WSW,3.5,-,N/A,,Clear,240,2013-11-11 13:55:00
9:15 AM,44.6,28.4,53,30.24,10.0,WSW,5.8,-,N/A,,Clear,250,2013-11-11 14:15:00
9:35 AM,44.6,28.4,53,30.23,10.0,WSW,4.6,-,N/A,,Clear,250,2013-11-11 14:35:00
9:55 AM,44.6,28.4,53,30.22,10.0,West,8.1,-,N/A,,Clear,270,2013-11-11 14:55:00
10:15 AM,44.6,28.4,53,30.22,10.0,WSW,5.8,-,N/A,,Clear,240,2013-11-11 15:15:00
10:35 AM,46.4,28.4,50,30.21,10.0,SW,6.9,-,N/A,,Clear,230,2013-11-11 15:35:00
10:55 AM,46.4,28.4,50,30.21,10.0,SW,6.9,-,N/A,,Clear,230,2013-11-11 15:55:00
11:15 AM,48.2,30.2,50,30.20,10.0,WSW,8.1,-,N/A,,Clear,240,2013-11-11 16:15:00
11:35 AM,50.0,28.4,43,30.19,10.0,SW,10.4,-,N/A,,Clear,220,2013-11-11 16:35:00
11:55 AM,50.0,30.2,47,30.18,10.0,SSW,10.4,-,N/A,,Partly Cloudy,200,2013-11-11 16:55:00
12:15 PM,50.0,30.2,47,30.17,10.0,SSW,8.1,16.1,N/A,,Mostly Cloudy,200,2013-11-11 17:15:00
12:35 PM,50.0,28.4,43,30.16,10.0,SW,9.2,17.3,N/A,,Mostly Cloudy,220,2013-11-11 17:35:00
12:55 PM,50.0,30.2,47,30.15,10.0,SSW,6.9,-,N/A,,Mostly Cloudy,210,2013-11-11 17:55:00
1:15 PM,50.0,32.0,50,30.14,10.0,SSW,6.9,-,N/A,,Overcast,200,2013-11-11 18:15:00
1:35 PM,50.0,30.2,47,30.12,10.0,South,8.1,-,N/A,,Overcast,190,2013-11-11 18:35:00
1:55 PM,51.8,32.0,47,30.11,10.0,South,10.4,-,N/A,,Mostly Cloudy,180,2013-11-11 18:55:00
2:15 PM,50.0,30.2,47,30.11,10.0,SSW,9.2,-,N/A,,Overcast,210,2013-11-11 19:15:00
2:35 PM,50.0,30.2,47,30.10,10.0,SSW,10.4,16.1,N/A,,Overcast,210,2013-11-11 19:35:00
2:55 PM,50.0,28.4,43,30.10,10.0,SSW,10.4,-,N/A,,Overcast,210,2013-11-11 19:55:00
3:15 PM,50.0,30.2,47,30.09,10.0,South,10.4,16.1,N/A,,Overcast,190,2013-11-11 20:15:00
3:35 PM,50.0,30.2,47,30.09,10.0,SSW,8.1,-,N/A,,Overcast,200,2013-11-11 20:35:00
3:55 PM,50.0,30.2,47,30.09,10.0,SSW,8.1,-,N/A,,Overcast,210,2013-11-11 20:55:00
4:15 PM,50.0,32.0,50,30.08,10.0,South,6.9,-,N/A,,Overcast,190,2013-11-11 21:15:00
4:35 PM,50.0,32.0,50,30.07,10.0,South,6.9,-,N/A,,Overcast,180,2013-11-11 21:35:00
4:55 PM,50.0,32.0,50,30.06,10.0,South,8.1,-,N/A,,Overcast,180,2013-11-11 21:55:00
5:15 PM,50.0,32.0,50,30.06,10.0,South,5.8,-,N/A,,Overcast,190,2013-11-11 22:15:00
5:35 PM,50.0,32.0,50,30.06,10.0,South,8.1,-,N/A,,Overcast,190,2013-11-11 22:35:00
5:55 PM,50.0,32.0,50,30.06,10.0,South,8.1,-,N/A,,Overcast,190,2013-11-11 22:55:00
6:15 PM,48.2,32.0,54,30.05,10.0,South,11.5,-,N/A,,Overcast,190,2013-11-11 23:15:00
6:35 PM,48.2,32.0,54,30.04,10.0,South,10.4,18.4,N/A,,Overcast,190,2013-11-11 23:35:00
6:55 PM,48.2,32.0,54,30.04,10.0,SSW,10.4,-,N/A,,Overcast,200,2013-11-11 23:55:00
7:15 PM,48.2,32.0,54,30.03,10.0,South,9.2,-,N/A,,Overcast,190,2013-11-12 00:15:00
7:35 PM,48.2,32.0,54,30.03,10.0,South,10.4,-,N/A,,Overcast,190,2013-11-12 00:35:00
7:55 PM,48.2,32.0,54,30.02,10.0,SSW,9.2,-,N/A,,Overcast,200,2013-11-12 00:55:00
8:15 PM,48.2,32.0,54,30.02,10.0,SSW,8.1,-,N/A,,Mostly Cloudy,200,2013-11-12 01:15:00
8:35 PM,48.2,32.0,54,30.02,10.0,SSW,6.9,-,N/A,,Mostly Cloudy,200,2013-11-12 01:35:00
8:55 PM,48.2,32.0,54,30.01,10.0,South,8.1,-,N/A,,Overcast,190,2013-11-12 01:55:00
9:15 PM,48.2,32.0,54,30.01,10.0,South,6.9,-,N/A,,Overcast,190,2013-11-12 02:15:00
9:35 PM,48.2,32.0,54,30.01,10.0,South,8.1,-,N/A,,Overcast,190,2013-11-12 02:35:00
9:55 PM,48.2,32.0,54,30.00,10.0,South,6.9,-,N/A,,Overcast,190,2013-11-12 02:55:00
10:15 PM,48.2,32.0,54,29.99,10.0,SSW,8.1,-,N/A,,Overcast,200,2013-11-12 03:15:00
10:35 PM,48.2,32.0,54,29.99,10.0,SSW,6.9,-,N/A,,Overcast,200,2013-11-12 03:35:00
10:55 PM,48.2,32.0,54,29.99,10.0,SSW,5.8,-,N/A,,Overcast,200,2013-11-12 03:55:00
11:15 PM,48.2,32.0,54,29.99,10.0,SSW,6.9,-,N/A,,Overcast,200,2013-11-12 04:15:00
11:35 PM,48.2,33.8,58,29.98,10.0,South,4.6,-,N/A,,Overcast,190,2013-11-12 04:35:00
11:55 PM,48.2,33.8,58,29.98,10.0,SSW,4.6,-,N/A,,Overcast,200,2013-11-12 04:55:00